Погода в Буръо

Сомали     9°31′29″N   45°32′09″E
темп.,
°C
ветер,
м/с
пор.,
м/с
влажн.,
%
обл.,
%
осадки,
мм/ч
давл.,
гПа
погр.,
м
24 мая, вт
вт2400:00+26юз812505 0.0 1008278
03:00+25зюз61252100 0.0 1008373
06:00+24юз71455100 0.0 1010528
09:00+28юз12134494 0.0 10111372
12:00+32зюз86290 0.0 10092288
15:00+34зюз33208 0.0 10063572
18:00+33зюз232198 0.0 100690
21:00+29зюз894299 0.0 1010607
25 мая, ср
ср2500:00+28юз694546 0.0 1009565
03:00+25юз695146 0.0 1009291
06:00+24ююз812576 0.0 1012676
09:00+27юз1213450 0.0 10121104
12:00+33зюз74270 0.0 10102183
15:00+34юз12192 0.0 10073519
18:00+33ю332071 0.0 100732
21:00+29ююз6838100 0.0 1011788
26 мая, чт
чт2600:00+27юз8124599 0.0 1011668
03:00+25зюз8145422 0.0 1010589
06:00+24юз8135570 0.0 1012818
09:00+28юз1112445 0.0 10131162
12:00+33зюз76265 0.0 10102282
15:00+35юз341892 0.0 10073649
18:00+33с4423100 0.0 1007413
21:00+30ю563899 0.1 1010314
27 мая, пт
пт2700:00+26ююз71252100 0.0 1011454
03:00+25юз8125367 0.0 1010624
06:00+24юз915543 0.0 1011721
09:00+28юз1111443 0.0 10121132
12:00+33юз77250 0.0 10103236
15:00+35юз451741 0.0 10063644
18:00+32с572329 0.0 1007390
21:00+26ю684987 0.6 1011234
28 мая, сб
сб2800:00+25ююз812545 0.5 1011427
03:00+23юз7145714 0.5 1010514
06:00+23юз8155826 0.0 1012683
09:00+27юз1212445 0.0 10121083
12:00+32юз96292 0.0 10092365
15:00+33ююз532123 0.0 10063216
18:00+31ююз252594 0.0 1007288
21:00+27ююз894345 0.0 1010821